Wind_Speed
9 10 11 11 16 17 15 18 21 20 18 21 25 26 26 26 26 24 22 21 20 20 20 19 19 18 17 17 16 16 15 14 15 15 16 16 15 15 15 15 14 13 12 12 12 13 14 12 11 10 11 13 13 13 12 12 14 13 11 12 11 9 9 9 9 9 9 9 10 10 10 9 9 8 8 8 7 6 6 7 7 8 11 12 13
10 11 12 13 17 18 15 17 21 21 19 21 23 24 25 25 23 22 22 20 19 19 19 18 18 17 16 16 15 14 13 13 14 14 15 14 14 14 14 13 12 12 11 12 12 13 13 11 11 12 13 14 14 12 12 11 12 12 10 9 8 7 8 9 8 8 8 8 8 8 8 8 7 7 8 7 6 6 6 6 6 8 10 12 12
13 12 13 15 17 17 16 18 20 20 19 20 22 23 24 24 22 21 21 21 19 19 18 18 17 17 16 15 14 13 13 12 13 13 13 13 13 13 13 12 11 11 11 11 12 13 12 11 11 13 13 14 14 13 13 13 12 12 11 8 7 5 5 6 7 8 7 6 5 6 7 7 5 6 8 6 6 6 7 6 6 9 10 11 12
14 14 15 17 17 17 17 17 18 19 19 19 20 22 23 22 21 20 20 20 19 19 17 17 16 16 15 15 14 13 12 12 13 13 12 12 13 12 11 11 11 11 11 11 12 12 11 11 12 12 13 13 13 15 14 14 13 12 10 7 6 5 4 4 5 6 6 5 3 4 5 4 4 6 8 7 6 6 6 6 6 9 11 11 11
15 16 16 17 16 16 18 18 18 17 20 20 18 19 21 21 21 19 18 18 18 18 17 16 16 15 14 14 14 13 12 12 12 12 11 11 11 10 10 10 10 10 11 12 12 11 11 12 12 12 12 11 13 15 13 13 13 12 10 7 6 5 4 4 5 4 4 5 3 2 3 4 5 7 7 7 7 6 6 7 7 8 10 11 11
15 16 16 16 14 15 17 17 17 17 19 19 17 17 18 19 19 18 17 17 17 17 17 17 16 14 14 13 13 13 12 12 11 10 10 10 10 9 9 9 10 10 10 12 12 11 11 12 12 12 12 12 13 13 11 10 10 8 8 9 7 4 4 4 2 2 3 2 2 2 3 5 6 7 8 7 8 7 6 8 8 8 10 11 11
15 15 15 17 14 16 17 15 16 17 18 18 17 16 17 17 16 16 16 16 16 16 16 16 15 14 14 13 12 12 12 11 10 9 10 10 9 10 9 9 10 10 11 11 10 8 9 10 12 13 12 11 12 10 10 9 6 6 7 8 8 6 4 4 2 1 3 2 2 2 3 4 5 7 8 7 8 7 7 8 8 8 9 10 10
16 14 15 16 14 16 17 14 15 16 17 18 17 16 16 16 15 15 16 16 16 16 15 14 14 13 13 12 12 11 11 10 9 9 9 9 9 10 9 8 9 10 10 8 6 6 7 8 10 12 11 10 10 10 10 9 9 9 9 7 6 8 8 6 3 1 2 2 1 2 3 4 4 6 7 6 7 7 7 7 7 8 8 10 10
16 15 15 15 14 16 17 17 15 14 16 17 16 16 15 15 14 15 17 16 15 15 15 13 12 12 12 11 10 10 10 9 9 8 8 9 9 9 8 7 8 8 6 5 5 5 6 6 8 10 9 9 9 10 11 9 9 11 10 8 8 9 9 8 5 2 1 1 0 0 1 2 3 6 6 5 6 7 8 7 7 8 8 10 9
16 16 15 14 14 15 17 17 16 15 15 15 14 15 15 16 14 14 17 17 15 14 14 12 10 11 11 10 10 9 9 8 8 8 8 8 8 8 7 6 7 5 5 5 5 7 7 7 7 8 8 8 8 10 11 10 9 9 10 11 11 10 10 8 4 3 0 1 0 1 1 0 2 5 6 4 6 7 7 7 7 8 8 9 9
16 16 15 14 14 15 16 16 16 15 15 14 14 14 15 16 15 14 15 16 15 13 12 10 9 10 9 10 10 9 7 7 7 7 7 7 8 9 6 4 6 5 5 6 6 8 7 8 8 7 7 8 7 8 9 9 11 10 11 13 13 13 11 7 4 3 1 1 1 1 2 1 2 3 3 3 5 7 7 7 6 8 9 8 8
17 16 14 14 15 15 15 15 16 15 14 15 15 14 15 16 16 15 13 15 14 12 12 10 9 10 9 10 9 8 7 6 6 6 6 6 7 7 5 5 6 5 5 5 7 7 6 6 6 6 7 7 8 9 8 8 11 12 11 11 11 13 12 7 4 4 3 3 4 1 2 1 3 2 2 3 4 6 8 8 8 7 8 8 9
18 16 14 15 15 14 14 13 15 16 15 15 15 15 15 15 14 15 14 14 13 12 11 10 10 10 10 10 8 7 6 5 5 4 5 5 6 7 5 5 5 5 5 6 8 8 9 8 6 7 8 8 10 11 9 8 9 11 11 11 11 12 11 8 5 3 3 3 5 5 1 2 3 3 3 3 3 6 8 8 9 9 8 8 9
18 16 15 14 13 14 14 13 14 15 15 15 15 15 15 14 13 13 14 13 13 12 9 8 8 9 9 9 7 7 6 4 3 3 4 3 4 7 4 3 4 6 7 9 10 10 12 13 10 10 10 9 9 9 10 9 9 9 9 9 9 10 10 9 5 4 4 4 6 7 2 2 3 1 3 4 4 5 7 7 8 9 8 8 9
17 17 15 14 13 14 15 14 14 15 15 16 15 15 15 13 13 13 12 12 11 12 9 7 7 7 8 7 7 6 5 4 3 2 2 1 2 5 4 4 5 8 10 12 13 13 16 16 14 13 11 9 8 7 8 9 8 8 8 7 6 7 9 9 6 6 6 6 8 7 2 2 2 3 3 5 6 4 5 6 7 10 9 8 9
17 16 15 14 13 13 15 15 15 15 16 16 15 14 14 12 12 12 11 11 10 11 11 8 8 7 7 7 6 5 4 3 2 2 1 1 2 4 5 6 7 9 11 13 15 15 16 16 14 13 11 8 8 8 9 9 8 7 7 6 6 7 9 8 8 9 8 7 8 6 2 1 1 4 4 5 7 5 6 8 7 9 10 7 7
16 16 15 14 13 13 15 16 16 16 17 16 14 13 13 12 10 10 10 11 10 9 9 9 8 7 7 6 5 5 4 4 3 2 1 2 3 3 5 7 9 10 10 13 15 14 14 14 12 11 11 8 6 8 9 9 9 7 7 8 9 10 10 8 9 10 9 5 5 4 0 2 3 6 6 5 7 6 6 7 7 8 10 8 7
16 16 14 13 12 12 14 15 15 16 17 16 14 13 12 11 9 9 10 11 10 8 9 9 8 7 6 6 6 6 5 4 3 2 1 3 3 4 5 7 9 9 10 12 13 14 14 12 10 11 12 9 7 8 8 10 11 10 9 10 12 12 10 10 10 8 8 6 4 4 1 3 5 8 8 6 8 7 5 6 7 8 9 9 7
15 15 14 13 13 13 14 15 15 16 17 15 15 13 11 11 9 9 9 9 9 9 10 9 8 7 6 6 6 6 5 4 2 2 2 3 4 4 5 6 8 9 11 12 12 13 13 12 10 10 11 10 8 8 9 11 12 11 10 9 10 10 9 10 10 8 7 8 7 6 4 1 6 8 9 7 8 8 6 5 6 8 8 8 8
13 14 13 12 13 13 14 15 15 16 15 14 14 13 12 11 9 9 9 8 9 9 9 8 7 6 5 5 5 5 4 3 2 2 4 4 4 4 5 7 9 11 12 12 12 13 12 11 10 8 9 9 9 10 11 11 10 10 10 9 8 6 7 7 7 6 6 7 6 5 4 1 7 9 9 8 9 9 8 6 6 7 8 8 7
13 13 12 12 12 12 14 15 14 15 14 13 13 13 13 11 10 10 9 9 8 8 8 7 6 6 5 4 4 4 4 4 2 2 4 4 6 6 6 8 11 12 12 12 12 12 11 10 9 6 6 8 9 10 11 11 11 11 10 9 8 6 6 6 5 4 4 5 4 3 3 1 4 9 10 9 9 9 8 8 7 6 7 7 7
15 14 12 13 13 12 14 15 14 14 14 12 12 13 13 12 11 10 10 9 9 8 8 7 6 6 6 5 4 5 4 3 3 3 4 5 6 7 8 10 11 11 10 10 9 9 9 8 7 5 5 8 8 6 7 9 11 13 12 9 8 7 7 6 5 4 2 3 3 1 1 2 2 9 11 9 10 10 8 8 8 7 6 7 8
16 15 15 14 13 13 14 15 14 14 13 12 12 12 12 13 12 10 9 9 9 9 8 8 7 6 5 5 5 5 4 3 5 6 6 6 6 7 9 10 10 10 9 9 8 8 7 7 6 7 7 7 5 4 5 6 7 10 9 8 7 7 8 7 6 5 3 2 2 2 2 4 4 8 10 10 11 11 10 9 9 9 7 7 8
16 15 15 14 13 14 13 13 13 12 12 11 11 11 12 12 11 10 9 9 9 9 8 8 7 6 5 5 5 4 4 5 6 6 6 6 6 7 8 9 9 9 9 7 6 7 7 6 6 6 5 4 3 4 6 6 7 8 7 7 7 7 7 7 6 6 4 2 3 4 4 7 8 8 9 10 10 11 11 10 9 9 9 8 8
16 14 15 14 13 13 13 13 11 11 11 10 10 10 11 11 10 9 9 9 8 8 8 8 7 7 6 6 6 6 6 6 5 5 5 5 5 5 5 6 6 6 6 5 4 4 4 3 3 4 2 3 4 5 6 7 8 8 8 8 7 7 6 6 6 6 6 4 5 7 4 7 10 10 9 9 9 10 11 11 10 10 10 10 10
16 14 15 15 14 13 13 13 12 12 12 11 10 9 10 10 10 10 9 9 8 8 8 7 7 7 7 7 7 6 6 6 5 6 6 6 6 5 4 4 4 4 3 3 2 3 2 1 2 2 3 3 4 5 7 7 8 9 8 8 8 8 7 6 6 6 6 5 7 9 6 6 9 10 10 9 8 9 10 11 11 10 10 11 12
16 15 15 14 15 15 14 14 13 14 13 12 11 10 11 11 10 10 10 9 8 8 8 8 7 7 8 8 8 8 7 7 6 6 6 6 6 5 5 4 4 4 3 3 2 2 2 2 2 2 3 4 5 6 7 8 8 9 8 8 8 9 9 8 7 7 7 6 7 10 8 6 7 9 10 9 8 8 10 12 13 11 11 12 13
16 15 15 15 16 16 16 15 14 14 14 13 12 11 11 11 10 10 10 9 8 9 8 8 8 7 9 9 9 9 8 8 7 7 7 7 6 6 5 5 5 4 3 4 3 3 3 3 3 3 4 5 6 7 8 9 8 9 9 9 9 9 9 9 8 8 8 7 7 8 7 5 6 7 9 10 10 9 9 11 13 12 11 12 14
16 16 15 15 16 17 17 16 15 14 14 14 13 12 11 12 11 10 12 11 9 9 8 9 9 9 10 10 10 10 10 9 8 8 7 7 7 7 6 6 5 4 4 4 4 4 4 4 4 5 6 6 8 8 8 8 9 9 9 9 9 9 9 9 9 8 8 7 6 7 7 5 5 6 7 8 10 11 9 8 11 12 13 14 15
17 16 15 15 16 16 17 17 16 15 14 14 13 12 11 11 11 10 12 12 11 10 9 9 10 11 10 10 11 11 11 10 8 8 9 8 7 8 8 7 6 5 5 5 4 4 5 4 4 6 6 7 7 7 7 8 9 8 8 8 9 9 9 9 9 9 8 8 7 7 7 6 6 6 6 7 8 10 10 8 7 10 14 17 17
17 17 16 16 16 17 17 17 17 15 15 15 13 13 11 11 11 11 11 11 11 11 12 12 12 11 11 12 14 13 12 12 9 7 9 9 8 9 9 8 8 5 4 5 5 4 4 4 4 6 6 6 6 6 7 8 8 7 7 8 8 8 8 9 9 9 8 8 8 7 8 7 7 7 7 7 8 9 9 8 7 9 15 19 19
18 18 17 17 17 18 18 18 18 16 16 16 14 13 13 12 12 12 12 12 12 12 13 14 14 12 12 14 16 15 14 12 10 9 9 9 8 10 10 10 9 5 4 5 5 4 4 4 4 5 6 6 6 6 6 7 7 7 7 7 8 8 8 9 9 9 8 8 8 8 8 7 8 8 7 8 8 8 8 9 10 10 14 16 17
19 19 18 18 18 18 18 18 18 18 18 17 15 14 14 14 14 13 13 14 14 14 14 15 15 14 13 14 13 14 14 12 11 11 11 11 10 10 9 10 9 6 5 5 5 4 4 4 4 5 6 6 7 6 6 6 6 6 7 7 8 8 8 8 8 8 8 8 7 8 8 8 7 8 8 7 8 8 8 9 10 10 11 13 13
18 18 19 19 19 17 18 18 19 20 20 18 16 15 15 15 14 14 14 15 15 15 15 15 15 14 15 15 13 13 14 12 11 12 13 13 10 9 10 9 8 6 5 5 5 4 3 4 5 5 6 6 6 6 6 6 6 6 6 7 7 7 7 7 7 7 7 7 7 7 7 8 7 8 8 7 7 7 7 7 9 8 9 10 11
19 18 20 20 20 18 17 18 19 20 20 20 19 18 16 16 15 14 14 14 15 15 15 15 14 13 15 15 14 14 13 12 12 13 14 14 12 11 12 10 7 6 5 4 5 4 3 4 5 5 6 5 5 5 6 6 6 6 6 6 6 6 7 6 6 6 5 6 6 5 6 6 7 7 6 7 6 5 7 6 7 7 8 9 10
19 18 18 19 20 20 18 18 19 20 21 21 21 20 18 17 16 15 14 14 15 14 15 16 14 13 15 16 16 15 13 13 12 13 14 14 14 13 13 11 7 6 5 4 5 4 3 4 4 4 5 5 5 6 6 6 6 6 6 6 6 5 6 5 5 5 4 5 5 4 5 5 5 5 5 6 5 4 5 7 7 7 7 8 8
20 19 18 19 20 20 20 20 19 20 22 22 22 21 20 18 18 17 16 16 17 15 14 15 13 14 15 15 16 16 14 13 13 13 13 14 15 13 12 11 7 4 4 5 4 3 3 4 4 4 4 5 6 7 7 7 7 6 6 6 5 4 4 4 5 4 4 4 4 4 5 5 5 4 3 4 4 4 3 5 8 9 9 9 9
20 20 19 19 19 20 21 21 20 20 21 22 22 22 21 19 18 17 16 18 19 17 16 14 12 13 14 14 15 16 15 13 13 14 14 15 15 13 11 10 9 8 6 5 4 3 3 4 5 5 4 5 7 7 7 7 7 7 6 6 5 3 3 3 3 4 3 3 4 5 5 6 6 6 5 2 2 2 2 2 5 9 11 12 12
20 20 20 19 19 19 20 21 21 21 20 21 22 22 20 18 17 15 15 18 18 18 17 14 12 13 14 15 15 14 15 14 14 16 16 15 15 15 13 10 10 9 6 3 3 3 3 4 5 6 6 7 7 7 7 7 7 7 7 6 4 3 2 2 3 3 3 4 4 5 4 5 6 7 7 6 5 3 2 1 1 4 8 10 10
20 20 20 20 20 20 21 21 22 22 21 20 21 22 19 18 17 16 16 18 17 17 16 14 15 15 15 16 15 14 16 15 14 16 16 16 16 15 13 10 7 6 4 2 4 4 3 4 6 7 8 8 8 7 6 6 8 7 7 6 4 3 2 1 2 2 3 3 4 5 5 5 6 6 7 7 7 6 5 4 3 0 4 7 6
20 20 21 21 21 22 22 22 22 22 22 21 20 20 19 18 17 16 16 17 16 15 16 16 16 16 15 15 16 17 16 15 16 16 17 18 16 12 10 10 7 5 4 3 3 3 2 3 5 6 7 7 7 7 6 5 8 7 6 6 4 3 2 1 1 2 3 3 4 5 5 6 6 6 6 6 6 6 5 5 4 3 3 4 4
21 21 21 21 22 22 22 23 22 22 22 21 19 19 18 18 16 15 15 16 15 14 15 16 13 13 15 15 17 18 16 16 16 15 15 15 13 9 9 10 8 5 4 3 3 2 2 3 5 6 6 6 6 6 5 5 7 6 5 6 5 4 3 2 1 1 2 3 4 5 5 6 7 7 6 6 6 6 5 5 5 5 5 4 3
22 22 22 22 22 22 23 23 23 23 22 22 20 20 20 19 16 14 13 13 13 12 12 13 12 12 15 14 15 16 15 15 13 11 10 10 9 8 8 8 7 5 2 2 2 2 3 4 5 6 6 6 6 6 5 5 6 5 4 4 4 3 3 3 1 1 2 3 3 5 6 7 8 8 7 7 6 6 6 6 7 6 6 6 5
22 22 23 23 22 23 24 24 23 23 23 22 21 22 22 19 16 14 12 11 12 12 11 12 12 11 13 14 13 12 11 11 11 10 9 8 7 7 7 5 4 2 1 2 3 3 4 5 5 6 6 6 6 4 3 3 4 4 4 3 3 3 2 1 0 1 2 2 3 5 5 6 8 8 8 7 7 7 7 7 7 7 6 6 5
23 23 23 23 23 23 25 24 23 23 23 22 21 22 21 18 16 15 12 13 13 13 12 12 11 10 12 12 10 8 9 10 9 9 8 8 7 7 5 2 1 1 2 3 3 3 4 4 4 4 5 6 5 4 2 2 2 2 3 3 3 3 1 3 3 1 2 1 2 5 5 5 7 7 7 7 7 6 6 6 6 6 6 6 5
24 23 23 23 23 23 23 23 22 22 22 21 21 21 19 19 19 16 13 14 13 12 12 11 10 10 9 8 7 7 9 9 8 8 7 8 8 6 3 1 1 2 2 3 3 3 3 3 3 3 3 4 3 4 3 2 2 2 2 2 2 2 3 4 3 2 1 2 2 3 4 5 5 5 6 6 6 6 5 5 5 6 6 5 5
24 23 23 23 23 23 22 22 22 22 22 21 21 21 19 19 19 16 14 14 13 12 11 10 10 8 6 5 5 6 7 7 8 8 7 7 7 6 3 1 3 3 3 3 3 3 2 2 2 2 2 2 2 4 4 3 2 3 3 2 0 2 3 3 3 3 1 2 1 1 2 4 4 4 5 5 5 5 4 4 4 3 4 4 4
25 24 23 23 23 23 23 23 23 23 22 22 21 21 19 19 18 17 16 15 14 13 11 10 10 8 6 6 5 6 6 6 7 8 8 7 7 5 3 3 3 3 3 3 2 1 1 1 1 2 2 1 2 3 3 3 4 3 2 2 1 1 2 3 3 3 2 2 1 2 3 4 4 4 5 5 5 4 3 3 2 2 2 2 2
26 24 24 23 23 24 23 23 23 22 22 22 22 21 20 19 18 18 18 16 14 12 11 11 10 9 8 7 7 6 6 7 8 8 8 8 7 5 4 4 4 5 4 4 3 1 1 1 1 2 1 1 2 2 3 4 4 2 1 2 1 1 0 1 2 1 2 3 2 2 3 5 4 4 4 5 5 4 2 2 2 2 2 1 1
27 25 25 24 23 23 23 24 24 23 22 22 22 22 21 20 20 19 18 16 14 13 12 11 11 10 9 9 9 8 7 8 9 9 9 8 7 6 5 5 5 6 5 5 4 3 2 2 2 2 1 1 2 2 3 3 3 2 0 1 1 0 1 1 1 1 1 1 3 5 6 6 5 5 5 5 7 5 4 3 3 2 2 2 2
27 27 26 25 25 24 24 24 24 23 23 22 23 23 22 21 21 20 19 17 16 15 14 13 12 11 10 10 10 9 9 8 9 9 9 8 8 7 7 6 6 6 6 5 4 3 4 4 3 2 2 1 1 2 2 3 3 3 2 1 1 2 2 2 2 2 2 3 3 5 7 7 7 8 6 6 7 7 5 5 5 4 4 4 3
Wind_Direction
123 127 127 129 126 128 129 127 128 126 125 123 123 127 130 133 136 137 136 135 135 134 133 131 129 129 127 123 119 115 110 102 94 88 83 80 78 76 75 74 72 71 71 73 71 71 71 68 64 62 59 55 56 55 53 53 55 62 69 71 75 72 70 78 84 92 91 86 83 84 89 84 88 92 86 89 90 90 91 87 99 112 112 117 121
123 132 134 129 125 130 128 128 131 126 123 121 122 126 129 132 134 136 136 134 132 132 134 132 130 126 123 122 117 112 107 101 93 86 82 79 78 76 75 74 72 70 67 67 68 67 64 59 54 51 50 52 55 54 53 56 60 64 67 73 78 79 81 85 84 83 84 93 95 88 93 92 93 95 91 88 84 90 90 84 96 107 111 118 121
122 132 137 132 124 128 129 130 129 124 123 121 122 125 127 131 134 136 136 135 131 129 131 130 129 124 119 118 116 111 108 102 93 86 83 80 78 75 75 75 71 67 66 66 64 62 60 56 51 48 47 48 50 48 48 50 48 50 52 58 69 66 70 85 84 80 79 88 102 98 100 104 106 102 100 89 70 81 89 89 99 106 111 116 120
127 134 138 134 126 126 126 129 129 126 127 122 121 124 125 130 134 134 134 135 135 131 128 129 128 121 115 115 116 113 108 101 92 86 84 82 79 78 76 75 71 67 65 65 61 59 55 52 50 49 50 46 46 46 45 48 44 45 49 48 60 59 55 64 60 69 71 73 104 114 101 99 113 114 107 87 66 81 92 95 104 112 114 114 119
134 139 137 133 130 132 129 131 133 133 132 124 122 125 124 128 132 134 135 135 137 134 129 129 124 117 112 112 114 110 104 97 92 89 86 84 81 81 78 75 73 68 63 64 61 55 48 44 45 45 48 46 45 46 41 47 50 41 35 40 63 77 78 54 20 27 39 56 80 96 77 74 109 121 109 85 75 90 94 96 103 111 116 117 121
135 135 137 134 130 138 137 133 128 129 130 124 127 130 127 126 129 133 136 136 136 136 133 130 122 117 118 113 107 103 100 95 93 91 87 85 83 80 74 70 70 68 61 61 57 50 43 36 40 43 42 41 43 45 39 45 61 57 31 23 43 80 114 105 40 351 339 25 46 26 55 69 96 112 110 90 83 99 100 101 106 111 116 118 123
133 130 138 138 129 139 139 129 122 122 126 128 132 135 134 131 131 131 134 138 138 138 135 133 126 123 122 114 106 101 97 94 94 92 90 87 83 78 69 64 65 64 57 55 53 49 45 37 38 43 39 39 41 39 36 32 42 75 67 28 23 38 69 116 143 331 323 302 311 359 53 57 74 97 105 89 83 101 107 106 111 114 114 116 125
137 132 137 136 128 136 135 131 127 124 129 135 135 134 136 134 134 132 130 134 137 138 135 134 130 126 120 110 104 100 96 94 93 91 90 85 78 73 65 59 60 62 59 56 54 53 53 48 45 47 39 30 33 30 29 22 16 31 44 35 24 26 33 56 87 37 322 288 306 3 35 39 59 93 105 91 91 108 116 110 107 113 117 120 124
138 134 135 135 133 136 135 139 137 131 131 134 136 134 136 135 137 138 134 131 133 137 135 133 130 129 123 113 106 103 104 99 91 87 85 78 72 67 61 55 59 64 65 54 39 37 38 44 52 57 49 29 24 22 16 8 20 24 21 26 32 35 40 46 57 67 305 285 274 316 22 31 53 102 113 102 108 116 124 121 112 115 120 124 123
135 132 133 136 138 138 138 142 144 141 134 132 137 135 135 136 137 140 138 132 128 135 135 132 131 132 129 122 116 112 110 101 89 84 79 73 66 59 56 62 66 58 44 34 17 18 16 22 41 50 48 36 20 17 9 354 6 18 20 25 23 28 45 48 51 72 323 286 267 226 196 4 52 108 107 99 122 125 128 133 135 129 125 126 127
136 135 134 137 142 139 139 143 147 147 139 136 138 139 139 137 135 133 137 134 130 132 128 130 137 135 133 126 118 116 113 103 91 82 77 68 62 56 51 57 57 40 15 8 12 22 16 12 27 30 30 28 11 9 5 351 351 2 20 28 19 15 30 38 35 50 13 328 1 238 210 212 94 95 80 98 129 136 134 136 142 134 132 134 132
139 139 138 142 145 139 141 146 147 145 143 144 143 145 143 140 139 133 136 137 133 132 127 135 144 138 134 123 116 115 111 105 91 79 74 62 61 58 44 37 39 20 353 359 23 24 6 360 12 11 12 10 358 357 356 353 349 354 10 17 18 9 11 15 12 21 8 18 18 6 206 191 127 102 71 110 129 144 152 149 144 136 139 141 137
141 142 141 145 146 141 144 145 146 146 145 147 147 148 145 143 143 139 142 142 138 136 137 149 149 143 136 122 121 120 113 107 92 78 65 59 62 53 35 28 23 352 342 9 24 12 358 358 358 356 356 354 354 354 350 346 342 350 358 357 6 2 355 358 4 355 352 40 28 21 136 169 139 133 120 141 144 149 165 165 151 144 147 148 143
143 142 142 145 146 145 149 150 149 148 147 149 152 150 147 147 145 145 146 146 142 138 145 155 145 140 135 128 129 123 122 127 108 88 63 63 66 52 26 9 5 339 349 10 14 9 7 6 359 355 348 339 343 350 346 342 339 347 357 354 353 349 347 348 357 358 351 32 28 19 55 135 127 169 158 164 168 157 171 172 157 152 157 158 151
143 143 144 145 149 152 153 154 151 151 152 152 157 153 149 149 148 150 147 148 148 143 148 150 137 132 132 135 136 135 148 158 126 103 84 83 60 44 1 349 356 346 359 6 5 5 10 8 358 355 346 327 321 335 345 343 337 338 353 355 337 341 354 351 0 15 4 10 14 20 49 105 120 228 205 172 172 167 172 171 164 158 162 167 159
146 147 148 145 152 155 151 156 156 154 155 155 159 156 152 151 152 155 149 148 153 152 154 150 145 144 142 143 145 154 166 160 138 155 188 302 12 22 350 339 345 353 1 1 1 3 8 5 356 352 343 325 318 336 354 355 352 345 348 343 342 3 6 7 15 15 16 8 1 16 53 78 137 217 209 181 175 168 170 171 174 163 161 172 169
151 152 152 150 154 154 151 155 156 156 158 159 161 162 159 154 156 158 152 153 159 162 161 156 155 154 149 149 153 160 163 167 179 218 271 347 345 357 342 332 341 354 3 358 355 358 5 3 359 360 351 344 343 359 10 11 16 13 1 349 360 18 13 24 34 22 20 11 349 2 177 175 190 216 215 190 179 169 169 174 181 169 162 173 175
155 157 155 154 157 156 157 154 151 158 163 165 168 170 165 159 165 163 162 164 167 168 161 162 158 151 158 164 167 172 178 189 204 244 300 322 320 339 333 333 344 352 4 359 350 355 8 8 6 10 3 359 12 28 25 20 20 15 15 4 2 14 18 29 38 32 9 356 354 352 287 185 174 206 218 196 181 177 170 171 176 170 167 173 175
157 159 157 156 158 157 161 158 156 163 168 170 168 169 168 167 174 171 173 170 170 169 160 165 159 152 173 183 189 195 197 209 225 274 291 302 317 336 329 339 351 354 2 357 351 3 17 20 14 15 11 5 16 35 30 19 13 5 12 12 3 8 20 25 28 30 1 359 8 354 346 154 153 185 215 196 182 184 178 169 169 170 172 178 180
157 160 160 158 161 156 158 162 164 168 171 173 169 169 171 171 174 175 179 170 170 175 168 171 164 160 183 202 221 217 213 229 217 277 292 303 313 320 327 345 353 353 0 353 351 5 20 30 27 21 16 7 11 27 29 22 13 4 4 8 15 14 21 18 12 19 354 358 13 4 13 114 152 171 207 195 185 189 185 176 170 172 174 182 182
160 164 167 165 165 159 160 162 165 171 170 174 176 172 168 168 172 175 180 176 175 180 179 180 176 176 194 215 233 226 229 244 232 265 282 295 303 313 334 349 351 352 359 354 354 5 13 29 39 37 26 22 23 26 28 24 16 12 8 9 21 20 19 13 357 9 337 341 6 32 30 346 144 171 202 195 187 191 192 184 178 177 172 180 183
167 169 171 170 167 165 170 169 170 175 174 176 175 168 164 168 171 175 180 180 178 181 185 187 192 195 201 213 225 233 242 263 271 270 274 287 299 317 338 347 348 350 359 360 5 13 12 25 43 57 54 51 48 40 29 21 11 10 14 15 14 5 3 360 352 356 332 338 351 39 8 310 154 182 203 199 189 190 197 191 186 187 179 182 186
171 171 172 174 172 171 174 174 175 175 174 170 166 164 169 174 172 173 178 180 181 184 192 193 200 206 205 217 229 244 254 264 265 264 275 290 308 329 343 348 350 352 4 12 16 21 23 29 42 55 52 53 59 51 34 21 8 7 11 10 2 354 348 341 340 340 338 355 291 257 227 245 222 197 206 207 198 192 196 198 196 194 195 194 192
174 173 173 177 178 175 173 176 176 173 175 169 165 168 171 175 173 174 177 181 186 190 198 197 201 206 207 222 230 239 248 251 260 270 283 293 310 327 337 349 354 351 4 18 17 18 30 27 29 45 43 34 30 23 17 7 1 358 357 357 354 347 340 333 332 326 324 333 258 255 226 227 235 227 219 218 213 202 196 198 203 201 202 208 203
176 177 175 178 182 180 176 177 177 177 182 177 172 173 172 177 181 179 180 184 190 195 203 203 205 212 214 224 230 236 246 251 260 270 280 286 297 308 316 339 349 343 359 16 11 12 29 22 13 28 11 359 6 2 358 354 351 348 345 346 345 340 338 333 331 321 312 302 270 275 258 226 234 243 240 234 229 217 206 204 209 212 209 213 212
178 181 179 181 184 184 181 180 183 184 188 186 180 180 178 181 184 184 187 191 194 200 208 211 213 218 221 229 233 237 242 246 253 259 269 277 284 296 301 316 323 325 345 350 355 359 356 351 353 352 336 337 344 348 349 347 343 340 339 338 339 336 332 329 327 320 309 294 277 284 280 239 232 242 249 248 242 232 224 217 213 216 219 221 219
182 185 181 183 185 185 186 185 187 188 192 193 187 190 192 189 189 191 195 198 200 208 215 217 218 220 224 231 236 238 239 240 243 249 258 265 272 283 291 298 301 303 309 302 304 313 305 310 315 313 322 321 325 336 338 339 339 338 339 337 335 330 324 323 319 313 305 293 279 283 284 261 236 237 251 257 255 244 234 225 215 214 223 230 227
187 189 184 186 189 188 189 189 189 191 194 197 194 196 199 197 195 196 201 202 205 214 218 221 225 226 227 231 235 241 241 239 240 244 251 258 265 268 271 275 280 286 285 280 279 280 282 287 291 298 311 316 322 329 332 336 337 338 339 335 330 324 319 316 311 307 302 295 280 276 277 267 247 234 243 257 262 257 244 232 221 214 223 232 231
191 191 189 191 193 192 192 192 191 192 196 199 200 200 201 201 198 202 209 209 212 218 220 224 228 229 229 231 235 239 241 240 238 241 248 256 265 263 259 258 259 264 269 266 264 271 277 279 285 298 309 317 322 327 332 334 333 334 334 330 327 322 317 312 307 303 297 295 286 276 273 260 248 237 234 244 259 267 261 242 226 219 224 229 230
195 194 196 197 196 196 195 195 194 195 198 201 204 204 205 204 202 207 212 211 214 220 224 226 227 229 229 228 231 235 240 243 241 245 248 249 260 265 265 264 257 249 257 265 263 265 272 279 289 302 312 317 321 325 327 328 327 328 329 329 328 324 318 312 307 301 294 293 289 284 280 261 240 236 234 233 244 262 268 261 241 227 229 228 224
199 199 202 201 199 199 198 198 197 196 200 204 206 207 209 208 207 209 211 212 214 218 225 229 229 229 228 229 230 232 237 239 242 255 255 251 256 261 265 273 275 267 267 273 271 270 276 286 298 306 312 313 316 320 322 324 324 327 329 329 327 325 319 313 306 299 293 291 291 288 284 272 254 241 231 228 232 244 257 262 251 235 234 230 223
201 204 205 205 203 202 201 200 199 200 203 205 206 209 213 212 211 212 214 216 215 217 223 229 231 229 230 236 234 233 237 238 240 252 259 259 258 259 263 269 272 265 269 277 271 272 278 286 291 297 301 305 313 317 319 320 320 326 329 329 328 324 321 315 308 302 299 295 292 290 286 279 270 262 248 232 230 227 228 239 239 237 241 237 229
203 206 207 208 206 204 204 201 201 203 205 206 207 212 215 215 216 216 218 219 218 219 222 225 228 227 232 239 238 237 242 246 249 254 259 259 256 259 263 267 268 258 255 257 251 256 268 284 285 285 296 304 311 314 313 314 317 323 325 328 327 322 321 317 313 311 307 302 298 296 291 282 271 271 268 246 231 222 218 232 237 237 247 246 234
204 205 207 209 208 206 206 203 202 204 205 206 209 213 216 218 220 220 222 223 223 224 224 226 228 229 234 238 238 242 247 251 256 257 255 257 258 260 265 268 263 254 252 245 252 264 269 287 287 288 300 304 307 310 310 313 315 317 321 325 325 323 320 318 321 319 314 311 309 304 296 291 279 269 268 258 237 214 209 235 245 240 240 240 230
205 205 207 208 209 207 207 205 204 205 205 206 210 215 217 219 221 223 226 226 228 229 229 231 229 229 234 237 237 242 247 247 253 255 252 255 256 258 266 267 259 263 269 255 271 284 280 286 287 293 302 304 308 304 301 306 307 310 317 322 324 323 318 321 326 323 324 322 317 314 306 298 291 279 269 267 247 194 178 201 236 240 231 229 224
204 206 205 206 209 209 208 207 206 205 205 208 211 216 220 221 222 225 227 227 230 232 234 234 230 230 235 238 240 240 241 244 254 257 253 254 256 261 263 256 257 281 282 265 276 282 276 280 279 293 304 305 303 295 293 298 300 305 312 317 322 323 319 325 328 328 339 334 329 332 324 317 308 292 271 266 260 220 183 181 200 215 215 217 222
202 205 204 204 207 209 210 211 209 206 206 209 212 217 221 221 223 225 228 231 233 235 238 236 234 238 236 238 243 242 240 245 255 257 257 260 263 266 260 250 255 265 251 250 263 273 279 282 273 280 294 294 294 294 295 297 300 305 309 314 317 318 320 328 332 333 339 340 344 351 350 352 346 326 293 264 261 256 233 190 185 190 195 196 202
201 204 204 205 207 208 210 212 213 211 209 210 213 218 220 221 224 226 230 237 239 241 244 241 238 238 237 240 243 245 247 250 257 261 264 265 263 262 260 263 263 239 222 230 243 265 284 291 286 277 281 289 293 296 296 297 301 300 302 306 307 308 317 325 331 338 341 349 355 356 2 8 13 15 14 5 315 278 271 230 192 191 193 191 193
201 203 204 206 207 208 210 211 215 215 212 212 214 218 220 221 222 218 225 238 241 241 243 244 243 240 240 243 239 241 249 250 257 260 257 254 257 260 258 263 260 232 205 218 257 285 293 299 300 290 288 287 285 289 291 294 294 293 299 303 297 287 299 326 329 343 350 357 360 351 0 13 18 22 28 34 33 33 21 12 200 200 188 187 197
202 203 204 206 207 208 209 211 214 215 214 214 214 216 217 219 220 216 222 234 237 236 237 236 240 243 243 241 238 242 247 248 251 251 249 248 251 259 254 244 244 226 202 239 278 297 307 310 303 292 291 286 277 273 277 286 292 292 293 292 286 269 272 329 338 353 357 2 8 357 359 15 18 18 23 28 33 42 46 51 46 50 155 162 182
202 203 205 207 209 209 210 212 212 212 213 213 212 214 215 216 222 223 225 231 230 230 234 231 234 242 241 236 238 244 248 248 246 248 255 251 242 246 244 228 223 219 215 242 266 283 300 301 293 284 279 279 276 270 269 280 286 285 282 283 273 245 259 300 9 20 6 9 24 18 14 22 26 22 23 26 27 35 39 43 42 32 72 119 131
201 203 206 208 210 211 212 213 213 211 212 214 213 213 214 214 221 226 228 233 231 230 236 233 227 231 237 236 231 233 238 240 239 247 256 246 231 234 231 219 214 209 217 242 263 277 281 276 276 272 268 270 275 275 274 272 278 293 302 294 276 227 224 258 298 27 22 24 38 39 35 35 36 30 25 30 32 34 33 36 44 39 40 47 67
202 203 206 209 210 211 212 212 214 213 213 214 213 213 216 216 222 228 228 234 239 237 238 234 225 227 240 240 227 227 232 233 237 244 243 233 228 226 215 214 218 216 232 270 280 281 276 269 260 262 268 267 266 264 262 267 285 309 301 281 287 258 216 217 249 39 22 13 41 54 44 42 44 39 35 36 35 40 42 46 51 50 44 40 39
204 205 206 208 210 212 211 210 212 213 214 214 214 218 220 218 220 226 227 233 242 247 246 236 226 233 243 236 229 235 233 231 238 235 227 225 220 208 198 208 227 239 287 285 283 277 266 263 255 255 260 265 273 268 251 265 292 307 291 282 295 277 243 220 277 82 53 359 50 68 50 43 47 43 42 44 42 46 51 53 56 55 49 45 43
206 207 207 209 211 213 212 211 211 213 216 215 216 220 221 218 218 218 220 225 233 240 244 237 226 231 237 227 223 227 219 222 228 220 221 222 208 198 198 207 249 278 281 268 275 274 265 259 257 258 251 259 284 292 275 270 281 292 294 305 290 267 346 3 330 26 95 26 56 72 50 26 39 45 45 46 48 50 56 59 61 62 57 52 49
207 208 209 210 211 213 213 211 211 213 216 216 217 219 220 221 219 215 216 220 224 228 233 233 227 229 232 225 220 210 208 217 215 210 216 209 196 197 203 246 291 248 239 253 258 263 264 251 254 269 254 250 274 283 282 267 257 259 252 274 299 321 4 358 330 343 81 43 32 81 63 26 21 38 46 47 50 49 50 57 60 62 61 58 57
207 208 210 211 212 213 210 209 212 215 217 217 216 216 219 221 220 221 225 224 227 227 226 227 226 228 226 221 221 213 214 220 214 209 203 193 193 199 203 259 257 230 219 231 247 264 269 247 253 264 255 250 256 266 274 261 249 250 228 216 243 15 21 18 8 3 22 43 4 285 36 33 8 9 25 32 42 44 42 45 43 48 55 54 54
206 207 209 210 211 212 210 211 214 216 215 215 214 213 216 220 223 228 228 227 230 228 222 222 223 227 228 224 219 214 220 223 215 209 202 197 199 202 222 254 240 222 215 221 236 259 254 234 223 207 214 247 257 264 273 274 268 248 207 187 148 80 57 60 50 20 330 320 292 268 338 359 339 345 359 357 9 24 31 28 12 359 12 29 29
205 206 207 208 210 211 211 211 211 212 212 212 212 211 214 219 224 227 225 224 228 226 223 220 217 218 223 226 223 216 221 225 218 213 208 203 202 214 243 249 230 218 216 218 216 197 187 214 191 181 196 226 249 268 265 270 280 275 182 161 119 66 74 79 68 32 327 310 307 305 321 317 308 334 338 332 343 346 340 347 329 313 326 319 324
204 205 205 207 208 209 210 210 209 208 209 210 210 210 213 217 220 224 223 220 220 220 221 218 213 214 218 223 223 219 220 224 222 218 213 206 206 226 242 235 225 218 216 216 207 188 191 203 188 171 187 219 231 251 258 271 290 307 320 149 127 284 284 345 327 311 318 295 300 301 305 311 317 327 320 314 324 318 303 305 289 284 302 294 287
202 204 205 205 206 208 210 211 211 209 208 209 210 211 213 216 220 222 221 220 219 217 217 216 215 216 217 220 221 219 219 222 224 218 211 210 216 228 233 225 217 215 214 212 207 201 192 185 177 164 167 197 218 238 263 282 289 285 270 229 238 262 281 291 286 306 306 291 300 300 306 320 317 310 310 310 310 303 294 290 277 273 285 285 280
Height
823 824 826 825 825 825 825 826 827 828 830 830 829 832 833 835 836 838 839 840 841 841 842 843 844 845 846 847 848 848 849 849 850 850 850 851 851 851 851 852 852 853 854 854 855 854 854 853 853 852 852 852 851 851 851 851 850 849 850 850 850 850 850 850 851 850 850 849 849 849 848 848 849 849 849 850 850 850 851 851 851 851 851 851 851
824 826 827 827 826 826 828 829 830 830 831 832 832 834 835 837 838 840 840 842 842 843 843 844 845 846 848 848 849 850 850 851 851 851 851 852 852 852 853 853 854 855 855 855 855 855 855 854 854 854 854 853 851 850 851 852 850 849 850 851 851 852 851 851 851 851 851 850 850 850 850 850 849 849 849 850 850 851 851 852 852 852 852 852 853
825 826 827 827 827 827 830 831 832 831 832 832 834 836 837 839 840 842 842 843 844 844 845 846 847 847 849 850 850 851 852 852 852 852 853 853 853 854 854 855 855 856 856 856 856 856 855 855 856 855 855 854 852 851 851 852 851 850 851 852 853 853 854 853 852 852 851 851 851 851 851 850 850 850 850 850 850 851 852 852 853 853 853 853 854
825 826 827 828 828 829 832 833 833 833 833 834 835 837 838 841 842 844 844 845 845 846 847 847 848 849 850 850 851 852 852 853 853 853 854 854 854 855 856 856 857 857 857 857 857 857 856 856 856 856 856 854 853 852 852 852 851 852 853 854 853 854 855 855 854 853 852 851 852 852 851 851 851 851 850 850 851 852 853 853 853 854 854 854 855
825 826 828 829 831 832 833 834 834 834 834 835 837 838 839 841 843 844 845 846 846 847 848 849 849 850 851 852 852 853 853 854 854 855 855 855 856 857 857 858 858 858 858 858 858 857 857 856 856 857 856 856 855 854 854 853 853 853 854 855 855 855 855 855 855 854 853 853 852 851 851 851 851 852 851 851 851 853 854 854 855 855 855 855 856
826 827 829 830 833 834 835 836 835 836 836 837 838 839 840 842 843 845 846 847 847 848 849 849 850 851 852 853 853 853 854 854 855 855 856 857 857 858 859 859 859 859 859 859 859 858 857 856 857 857 857 857 857 856 856 856 855 854 854 856 856 855 855 854 854 854 854 853 852 851 851 851 851 852 851 852 852 853 854 855 856 856 856 857 857
828 829 830 832 834 835 837 837 838 838 838 839 840 841 842 843 844 846 847 847 848 849 849 850 851 852 853 853 853 854 854 855 856 856 857 858 859 860 860 860 861 861 861 860 859 858 857 857 857 857 857 857 858 858 858 859 859 857 855 856 856 855 854 853 852 853 854 854 853 852 851 851 852 851 851 852 853 854 855 855 856 857 857 858 858
830 831 832 834 836 837 838 839 839 840 840 841 842 843 844 845 846 847 848 848 849 849 850 851 852 853 853 854 854 854 855 856 857 857 858 859 860 861 861 861 862 862 861 860 858 858 858 858 858 857 857 857 858 859 859 858 858 856 855 856 856 855 854 853 852 853 853 853 853 852 851 851 852 851 852 852 853 854 855 856 856 858 858 858 859
831 832 833 835 837 838 838 839 839 840 841 842 843 844 845 847 848 848 849 849 849 850 851 851 852 853 853 854 854 855 856 857 858 859 860 860 862 862 863 863 863 863 861 860 859 859 859 859 859 859 859 858 859 859 859 858 856 855 855 856 856 854 853 853 853 854 854 853 853 852 851 852 852 852 852 852 853 854 856 857 857 858 858 859 859
831 832 834 835 837 838 838 839 840 841 842 842 844 845 846 847 849 849 849 849 850 850 851 852 853 853 854 854 854 855 856 857 859 860 861 862 863 864 864 863 862 862 861 861 860 860 860 861 861 860 860 860 860 860 859 857 857 857 856 857 856 855 854 854 854 855 855 854 854 853 852 852 852 852 853 853 853 854 856 857 857 858 859 859 860
832 834 835 836 837 838 839 840 841 842 843 843 845 845 846 848 849 849 849 850 850 851 852 853 853 854 854 854 855 856 857 858 860 861 862 863 865 865 863 863 863 863 862 861 860 861 861 861 861 861 861 860 861 860 859 858 858 858 858 858 857 856 855 855 854 855 855 854 854 853 852 852 853 853 853 854 854 854 856 857 857 858 859 860 861
833 834 835 837 837 838 839 840 842 843 844 845 846 846 847 848 849 850 850 850 851 852 852 853 853 854 855 855 856 857 858 859 860 861 862 864 866 865 864 863 863 863 862 862 861 862 862 862 862 862 861 860 860 860 859 858 857 858 858 858 858 857 856 856 855 855 855 854 853 853 852 852 853 854 854 855 855 855 856 856 857 857 858 859 861
833 835 836 837 837 839 840 841 842 843 844 846 847 847 848 849 850 850 850 851 851 852 852 853 853 854 855 856 857 858 859 860 861 862 863 865 866 865 864 863 862 862 861 862 863 862 863 863 863 862 862 861 860 859 858 857 856 857 858 858 857 856 856 856 856 856 855 854 853 853 853 853 854 854 855 855 856 856 856 856 857 857 858 859 861
833 834 836 837 838 840 841 843 843 844 846 846 848 848 849 849 850 850 851 851 851 852 853 853 854 855 856 857 858 859 860 861 862 862 863 865 865 865 864 863 863 862 862 863 863 863 864 864 864 863 863 862 860 859 857 857 856 857 859 858 856 856 856 856 856 855 856 855 854 854 854 854 854 855 856 856 856 856 856 856 857 858 859 860 861
833 834 836 837 838 840 841 843 843 845 846 847 848 848 849 850 851 851 851 852 852 853 854 855 855 857 857 858 859 860 860 861 862 863 863 864 865 864 864 864 863 863 863 864 864 864 864 864 864 863 863 862 860 860 858 857 857 857 859 858 855 855 857 857 856 855 855 856 855 855 856 855 856 857 857 857 857 857 857 857 857 858 859 860 861
833 834 835 837 839 840 841 843 844 845 847 847 848 849 850 850 851 852 852 853 853 854 855 856 857 858 859 859 860 860 861 862 863 863 863 864 864 864 863 863 863 864 864 864 864 865 865 863 862 862 863 861 860 859 858 857 857 857 858 856 854 853 855 856 856 854 855 856 856 856 856 856 857 859 858 858 858 857 857 857 858 858 859 860 861
834 835 836 837 839 840 841 843 844 846 847 848 848 849 850 851 852 852 853 854 854 856 856 858 858 859 860 860 861 861 862 863 863 863 864 864 864 864 864 863 863 864 864 864 864 864 865 862 860 862 863 861 860 858 856 856 856 857 857 855 853 852 854 855 856 855 854 854 855 856 856 857 859 861 860 859 858 858 858 858 858 859 860 861 861
835 836 836 838 839 840 842 843 845 846 847 848 849 849 850 851 852 853 854 855 856 857 858 859 859 860 861 861 862 862 863 863 863 864 864 864 864 864 864 863 863 863 864 864 863 864 865 863 860 862 862 860 859 857 856 855 855 856 856 854 853 853 854 855 856 856 853 853 855 855 855 855 857 861 861 859 859 858 858 858 858 859 860 861 862
836 837 838 839 839 841 842 844 845 846 847 848 849 850 851 852 853 854 855 856 857 857 858 859 860 861 861 862 863 863 863 863 863 864 864 864 864 864 864 864 863 863 864 863 864 864 865 864 861 861 862 861 859 858 856 855 855 855 856 855 854 854 855 855 855 856 854 854 855 854 855 855 855 859 861 860 859 859 858 858 858 858 859 861 862
836 837 838 840 840 842 843 844 845 846 847 848 849 850 851 852 853 855 855 856 857 858 859 860 861 862 862 862 863 863 863 863 863 863 864 864 864 865 864 864 863 863 863 863 863 864 864 864 863 861 862 861 860 859 856 856 856 856 856 856 855 855 856 856 856 855 854 854 855 854 854 855 854 856 859 859 859 859 858 857 857 858 859 860 862
836 837 838 840 841 842 843 844 845 846 847 847 849 850 852 852 854 855 856 857 857 858 859 860 861 862 863 862 863 863 863 863 863 863 864 865 864 864 864 864 864 863 863 862 862 863 864 864 865 864 863 862 859 858 857 857 858 858 857 856 856 856 857 857 856 855 854 854 855 854 854 854 853 854 857 858 858 858 858 857 857 857 858 859 861
836 837 839 840 841 842 843 844 845 846 846 847 849 850 852 852 854 855 856 857 857 858 859 860 862 862 863 863 863 864 863 864 864 864 864 864 864 864 864 864 864 863 862 863 862 863 863 864 865 865 864 863 861 860 860 859 859 859 858 857 857 857 857 857 857 856 855 854 855 855 853 852 852 854 856 856 857 857 857 857 857 856 857 858 860
835 837 838 840 841 843 843 844 845 846 847 848 850 850 851 853 854 855 856 857 857 858 860 861 862 863 863 864 864 864 864 865 865 865 864 864 864 863 864 863 863 862 862 862 862 862 863 863 863 864 864 863 862 862 861 861 860 859 858 858 858 857 857 856 856 856 855 855 855 854 853 852 852 854 855 855 855 855 856 856 856 856 856 857 859
835 836 838 840 841 842 844 844 845 846 848 849 850 851 851 853 854 855 856 857 858 859 860 861 862 863 864 864 865 865 865 865 865 864 864 863 863 863 863 862 862 862 861 861 861 861 862 862 862 863 863 863 862 862 861 861 860 860 859 858 858 857 856 856 856 855 855 855 854 853 853 852 852 853 853 853 854 854 854 854 855 855 856 857 858
834 836 837 839 841 842 843 844 845 846 848 849 850 851 852 854 855 856 856 857 858 859 860 861 862 863 864 865 865 865 865 865 864 864 863 863 863 863 862 861 862 861 860 860 861 861 861 862 862 862 862 862 862 861 861 860 860 859 858 858 857 856 856 855 855 855 854 854 853 852 852 852 852 852 852 852 852 852 853 853 854 854 855 857 858
835 836 837 839 841 842 843 844 846 846 848 849 850 851 852 854 855 855 856 857 858 859 860 861 862 863 863 864 864 864 864 863 863 863 863 862 862 862 861 861 861 860 860 860 860 860 861 861 861 861 861 861 861 860 860 859 859 858 858 857 856 855 855 854 854 854 853 853 852 850 851 851 851 850 850 851 851 852 852 852 853 853 855 857 858
834 835 837 839 840 842 843 844 845 846 848 849 850 851 852 853 854 855 856 857 858 859 860 861 862 862 863 863 862 862 862 862 862 862 862 861 861 860 860 860 860 860 859 860 860 860 860 860 860 860 860 860 859 859 858 858 857 857 856 855 854 854 853 852 852 852 852 852 851 850 850 850 850 849 849 849 850 850 850 850 850 852 854 857 859
833 835 836 838 840 841 842 844 845 846 847 848 850 851 852 853 854 855 856 857 858 859 860 861 861 861 861 861 861 861 861 860 860 861 860 860 860 859 859 859 859 859 859 859 859 859 860 859 859 859 859 858 858 857 857 856 856 855 855 854 853 852 851 851 850 851 851 851 851 849 848 849 849 848 848 847 847 847 847 847 849 851 854 856 858
832 834 836 837 839 840 841 843 844 845 846 848 849 850 851 852 853 854 855 856 858 859 860 860 860 860 860 860 859 859 859 859 859 859 859 859 858 858 858 858 858 858 859 859 859 859 859 859 859 858 858 858 857 856 856 855 855 854 854 853 852 851 850 850 849 849 849 849 849 848 847 848 848 847 847 846 845 844 845 846 848 851 853 855 857
831 833 835 837 838 839 841 842 843 845 846 847 848 849 850 851 852 853 854 855 857 858 858 858 859 858 858 858 857 857 857 857 857 857 857 857 857 857 857 857 857 857 858 858 858 859 859 858 858 858 857 857 856 856 855 855 854 854 853 853 852 851 850 849 848 848 848 848 848 847 847 846 847 847 846 846 845 843 844 846 848 850 852 852 854
830 832 833 835 837 838 839 841 842 844 845 846 847 848 849 850 851 852 853 854 855 856 856 857 857 856 856 855 855 854 854 855 856 856 855 855 856 856 856 856 856 856 857 857 858 858 858 858 857 857 857 856 856 855 855 854 854 853 852 852 851 850 850 849 848 847 847 847 847 847 846 846 846 846 846 846 845 845 845 847 848 849 850 851 853
829 831 832 834 835 836 838 840 841 842 844 845 846 847 848 849 850 851 852 853 853 854 854 854 854 854 853 852 853 853 853 854 855 855 855 855 855 854 854 855 855 855 856 856 857 857 857 857 856 856 856 856 855 855 854 854 853 852 852 851 851 850 849 848 848 847 846 846 846 846 845 845 845 845 845 845 846 846 848 849 848 849 850 852 854
827 829 831 832 834 835 837 838 840 841 842 843 845 846 846 847 849 849 850 851 851 851 851 851 851 852 851 851 852 852 853 855 854 854 854 854 853 853 854 854 854 855 855 855 855 856 855 855 856 856 855 855 855 854 854 853 852 852 851 851 850 849 849 848 847 846 846 846 845 845 845 845 844 844 844 845 846 847 849 849 847 848 850 852 854
825 827 829 830 832 833 835 837 838 839 840 842 843 844 845 846 847 848 848 849 849 849 848 849 849 849 849 850 851 852 853 854 854 854 854 853 853 853 853 853 854 854 854 854 855 855 854 855 855 855 855 854 854 854 853 852 852 851 851 850 849 849 848 847 847 846 846 845 845 844 844 843 843 844 843 843 845 847 848 847 846 848 849 852 853
823 825 827 829 831 832 833 834 835 837 838 840 841 842 843 844 846 846 847 848 847 847 847 847 847 847 848 848 850 851 852 853 853 853 853 852 852 852 852 852 853 853 853 854 855 854 854 854 854 854 854 854 853 853 853 852 851 850 850 850 849 848 848 847 847 846 846 845 844 843 843 843 842 843 843 843 843 845 847 847 846 847 848 849 850
821 823 825 827 829 830 832 832 833 835 836 838 839 840 841 843 844 844 845 845 845 846 846 846 846 846 847 848 848 849 851 852 851 851 851 851 851 851 851 851 852 852 852 853 854 854 853 853 853 854 853 853 853 852 852 851 851 850 850 849 849 848 847 847 846 846 845 845 844 843 842 842 841 842 842 843 843 844 846 847 847 846 847 847 847
819 821 823 825 826 828 829 830 832 833 834 836 837 838 839 841 842 843 843 843 843 844 845 846 846 845 846 846 846 847 849 850 849 850 850 850 850 850 850 851 851 851 852 853 853 853 853 853 853 853 853 853 853 852 851 851 850 850 849 849 848 848 847 847 846 846 845 845 844 843 842 841 841 841 841 842 843 843 844 846 847 847 846 847 847
817 819 821 823 824 826 827 828 830 831 833 834 835 836 837 839 840 841 841 840 841 843 844 845 845 845 845 845 845 845 847 848 848 849 849 849 849 849 850 850 849 849 852 852 852 852 852 853 853 853 853 853 852 852 851 851 850 849 848 848 848 848 847 847 846 846 845 845 844 844 843 842 841 841 841 841 842 842 842 843 845 846 846 847 847
814 816 818 820 821 823 825 827 828 829 831 832 833 834 835 837 838 839 838 839 840 840 842 843 843 843 844 843 844 844 845 846 847 848 848 848 847 848 849 849 848 849 850 851 851 852 852 852 852 852 852 852 852 851 851 850 850 849 848 848 848 848 847 847 846 846 846 845 845 844 843 843 842 842 842 841 841 842 842 842 843 844 844 846 847
811 813 815 817 819 821 822 824 826 827 829 830 831 832 833 834 835 836 836 837 838 838 840 841 840 841 842 842 842 842 842 843 845 847 846 846 846 847 848 848 848 848 849 850 851 851 851 851 852 852 851 851 851 850 850 850 849 848 848 848 848 848 847 847 847 846 846 845 845 845 844 843 843 843 842 842 842 842 842 842 842 842 843 844 845
808 810 812 814 816 818 820 821 823 825 826 827 828 829 830 831 832 833 834 835 836 836 837 838 838 839 840 840 840 840 841 842 844 846 845 845 845 846 846 847 848 848 848 849 850 850 850 850 851 851 851 850 849 849 849 849 849 848 847 846 846 847 847 847 847 846 846 846 845 845 845 844 844 844 843 843 842 842 842 842 842 842 842 843 844
804 807 809 811 813 815 817 819 820 822 823 824 826 827 827 828 829 830 832 833 833 834 835 835 836 837 838 839 839 840 840 842 843 844 843 843 844 844 844 846 847 848 848 849 849 849 849 849 850 850 849 849 849 848 849 848 848 847 846 846 845 845 847 846 846 846 846 846 846 846 846 846 845 845 844 844 843 843 843 843 843 843 842 843 843
800 803 805 808 810 812 814 816 817 819 820 822 823 824 825 826 827 829 830 831 832 833 833 833 834 835 836 837 838 839 840 841 842 841 841 842 843 843 843 845 847 847 847 847 847 847 848 848 849 848 848 848 848 847 848 848 846 846 847 847 845 844 846 846 845 846 847 846 846 847 848 848 847 847 846 846 845 845 845 844 844 844 843 843 843
797 799 802 804 806 808 810 812 814 816 817 819 821 822 824 825 826 827 829 830 830 831 832 832 832 834 835 836 837 837 838 840 840 840 840 841 841 842 843 845 845 845 845 845 846 846 847 847 847 848 848 847 846 846 847 847 847 846 846 846 845 845 846 846 845 846 847 847 846 847 849 849 849 849 848 847 847 846 846 846 845 845 845 844 844
793 795 798 800 802 804 807 809 811 813 814 816 818 820 822 824 825 826 828 829 829 830 831 831 831 832 833 834 834 835 836 838 838 839 839 839 840 842 843 843 843 843 844 844 845 845 846 846 847 847 847 847 846 846 846 847 847 847 846 846 846 847 847 846 846 847 847 847 847 848 850 851 850 850 850 849 849 848 847 847 847 846 846 845 845
789 792 795 797 799 801 804 806 808 810 812 814 815 817 819 821 822 823 825 826 827 828 829 829 829 830 831 832 833 834 835 836 836 837 838 838 840 841 841 841 841 842 843 844 844 845 845 846 847 847 847 847 847 846 846 846 846 846 846 846 846 847 847 847 847 848 847 846 847 847 849 851 851 851 851 850 850 849 849 848 848 847 846 846 845
786 789 792 794 796 799 801 803 805 807 809 811 813 815 816 818 819 821 822 824 824 825 826 827 828 829 830 831 832 832 833 834 835 836 836 837 839 839 839 840 841 841 842 843 844 844 845 846 846 846 846 847 847 847 846 845 845 846 846 845 845 846 846 846 847 847 847 847 847 847 847 849 851 851 851 851 850 850 850 849 849 848 847 846 846
783 786 789 791 793 796 798 800 803 804 806 808 810 812 813 815 817 818 820 821 822 823 825 826 827 828 829 830 830 831 832 832 834 834 835 836 837 838 839 840 841 841 842 843 843 844 844 845 846 846 846 847 847 847 847 846 845 845 845 846 846 846 846 846 846 846 847 848 847 845 846 848 849 850 850 851 850 850 850 849 849 848 847 846 846
780 783 785 788 790 793 796 798 800 802 803 805 807 809 811 812 815 816 817 818 820 821 823 824 825 826 827 828 829 830 830 831 832 833 834 836 837 838 839 840 841 841 842 842 843 843 844 844 845 845 846 846 847 847 847 847 846 845 846 846 846 846 845 845 846 846 847 847 847 845 845 847 847 848 849 849 850 850 849 849 848 848 847 846 845
776 780 782 784 787 789 792 794 796 799 800 802 804 806 808 810 812 813 814 816 818 820 821 822 823 824 826 827 828 829 829 830 831 832 834 835 837 838 839 840 841 841 842 842 842 843 843 844 844 844 845 846 847 847 847 847 847 846 846 846 846 846 846 846 846 846 846 847 847 845 844 844 845 846 847 848 849 848 848 848 847 847 846 846 845
773 776 778 781 784 786 788 791 793 795 797 799 801 803 805 807 809 811 812 814 816 817 819 820 821 822 824 825 826 827 828 830 831 832 834 835 836 838 839 840 841 841 842 842 843 842 842 843 843 843 844 845 846 847 847 847 847 847 846 846 846 846 847 847 846 846 846 845 846 845 843 843 844 845 845 846 847 847 847 846 846 845 845 845 844